| time (UTC) | temp F | wind direction | speed knots | gust knots | rain 1hr in | rain 24hr in | rain mn in | humidity % | barometer mb |
| 20260510230027 | 55 | 300 | 2.6 | 4.3 | 0.00 | 0.06 | 0.06 | 61 | |
| 20260510225027 | 56 | 278 | 1.7 | 3.5 | 0.00 | 0.06 | 0.06 | 58 | |
| 20260510224027 | 55 | 264 | 1.7 | 2.6 | 0.00 | 0.06 | 0.06 | 58 | |
| 20260510223027 | 56 | 286 | 1.7 | 3.5 | 0.00 | 0.06 | 0.06 | 54 | |
| 20260510222027 | 58 | 292 | 2.6 | 5.2 | 0.00 | 0.06 | 0.06 | 51 | |
| 20260510221027 | 59 | 267 | 1.7 | 5.2 | 0.00 | 0.06 | 0.06 | 48 | |
| 20260510220027 | 59 | 280 | 1.7 | 4.3 | 0.00 | 0.06 | 0.06 | 47 | |
| 20260510215027 | 59 | 268 | 2.6 | 5.2 | 0.00 | 0.06 | 0.06 | 45 | |
| 20260510214107 | 59 | 274 | 2.6 | 4.3 | 0.00 | 0.06 | 0.06 | 48 | |
| 20260510213027 | 60 | 275 | 1.7 | 4.3 | 0.00 | 0.06 | 0.06 | 49 | |
| 20260510212027 | 60 | 269 | 1.7 | 4.3 | 0.00 | 0.06 | 0.06 | 49 | |
| 20260510211027 | 59 | 278 | 1.7 | 4.3 | 0.00 | 0.06 | 0.06 | 50 | |
| 20260510210027 | 59 | 281 | 2.6 | 4.3 | 0.00 | 0.06 | 0.06 | 50 | |
| 20260510205026 | 60 | 279 | 2.6 | 4.3 | 0.00 | 0.06 | 0.06 | 49 | |
| 20260510204027 | 60 | 257 | 3.5 | 6.1 | 0.00 | 0.06 | 0.06 | 48 | |
| 20260510203027 | 59 | 267 | 1.7 | 4.3 | 0.00 | 0.06 | 0.06 | 50 | |
| 20260510202027 | 60 | 283 | 2.6 | 6.1 | 0.00 | 0.06 | 0.06 | 47 | |
| 20260510201027 | 61 | 281 | 3.5 | 9.6 | 0.00 | 0.06 | 0.06 | 42 | |
| 20260510200027 | 61 | 293 | 2.6 | 5.2 | 0.00 | 0.06 | 0.06 | 41 | |
| 20260510195027 | 62 | 298 | 2.6 | 7.0 | 0.00 | 0.06 | 0.06 | 38 | |
| 20260510194107 | 63 | 280 | 1.7 | 3.5 | 0.00 | 0.06 | 0.06 | 39 | |
| 20260510193027 | 63 | 261 | 1.7 | 4.3 | 0.00 | 0.06 | 0.06 | 39 | |
| 20260510192027 | 65 | 275 | 2.6 | 6.1 | 0.00 | 0.06 | 0.06 | 38 | |
| 20260510191026 | 65 | 270 | 2.6 | 7.0 | 0.00 | 0.06 | 0.06 | 36 | |
| 20260510190027 | 64 | 250 | 1.7 | 7.0 | 0.00 | 0.06 | 0.06 | 38 | |
| 20260510185047 | 63 | 274 | 1.7 | 5.2 | 0.00 | 0.06 | 0.06 | 39 | |
| 20260510184047 | 66 | 214 | 2.6 | 6.1 | 0.00 | 0.06 | 0.06 | 37 | |
| 20260510183027 | 65 | 255 | 2.6 | 7.8 | 0.00 | 0.06 | 0.06 | 38 | |
| 20260510182047 | 65 | 221 | 2.6 | 6.1 | 0.00 | 0.06 | 0.06 | 36 | |
| 20260510181027 | 65 | 238 | 2.6 | 8.7 | 0.00 | 0.06 | 0.06 | 37 | |
| 20260510180047 | 65 | 251 | 1.7 | 6.1 | 0.00 | 0.06 | 0.06 | 38 | |
| 20260510175027 | 65 | 242 | 1.7 | 7.8 | 0.00 | 0.06 | 0.06 | 38 | |
| 20260510174027 | 65 | 251 | 2.6 | 7.0 | 0.00 | 0.06 | 0.06 | 37 | |
| 20260510173027 | 65 | 271 | 3.5 | 8.7 | 0.00 | 0.06 | 0.06 | 37 | |
| 20260510172027 | 65 | 269 | 2.6 | 6.1 | 0.00 | 0.06 | 0.06 | 39 | |
| 20260510171047 | 66 | 254 | 1.7 | 7.8 | 0.00 | 0.06 | 0.06 | 39 | |
| 20260510170027 | 66 | 255 | 1.7 | 6.1 | 0.00 | 0.06 | 0.06 | 40 | |
| 20260510165026 | 65 | 218 | 2.6 | 7.8 | 0.00 | 0.06 | 0.06 | 38 | |
| 20260510164027 | 66 | 271 | 1.7 | 5.2 | 0.00 | 0.06 | 0.06 | 41 | |
| 20260510163027 | 66 | 270 | 2.6 | 5.2 | 0.00 | 0.06 | 0.06 | 41 | |
| 20260510162027 | 65 | 254 | 2.6 | 7.0 | 0.00 | 0.06 | 0.06 | 40 | |
| 20260510161027 | 65 | 270 | 2.6 | 7.0 | 0.00 | 0.06 | 0.06 | 41 | |
| 20260510160026 | 65 | 265 | 1.7 | 6.1 | 0.00 | 0.06 | 0.06 | 43 | |
| 20260510155027 | 64 | 288 | 2.6 | 6.1 | 0.00 | 0.06 | 0.06 | 44 | |
| 20260510154027 | 65 | 245 | 2.6 | 7.8 | 0.00 | 0.06 | 0.06 | 42 | |
| 20260510153048 | 63 | 281 | 2.6 | 6.1 | 0.00 | 0.06 | 0.06 | 44 | |
| 20260510152027 | 63 | 273 | 2.6 | 7.0 | 0.00 | 0.06 | 0.06 | 42 | |
| 20260510151027 | 63 | 274 | 2.6 | 8.7 | 0.00 | 0.06 | 0.06 | 45 | |
| 20260510150027 | 64 | 286 | 1.7 | 7.0 | 0.00 | 0.06 | 0.06 | 48 | |
| 20260510145027 | 63 | 256 | 1.7 | 4.3 | 0.00 | 0.06 | 0.06 | 50 | |
| 20260510144047 | 62 | 285 | 2.6 | 5.2 | 0.00 | 0.06 | 0.06 | 51 | |
| 20260510143047 | 63 | 238 | 1.7 | 5.2 | 0.00 | 0.06 | 0.06 | 52 | |
| 20260510142027 | 63 | 253 | 1.7 | 4.3 | 0.00 | 0.06 | 0.06 | 53 | |
| 20260510141027 | 64 | 273 | 1.7 | 4.3 | 0.00 | 0.06 | 0.06 | 55 | |
| 20260510140027 | 63 | 240 | 1.7 | 4.3 | 0.00 | 0.06 | 0.06 | 54 | |
| 20260510135047 | 62 | 200 | 1.7 | 5.2 | 0.00 | 0.06 | 0.06 | 57 | |
| 20260510134027 | 61 | 260 | 1.7 | 6.1 | 0.00 | 0.06 | 0.06 | 60 | |
| 20260510133027 | 60 | 269 | 1.7 | 4.3 | 0.00 | 0.06 | 0.06 | 58 | |
| 20260510132028 | 61 | 258 | 1.7 | 4.3 | 0.00 | 0.06 | 0.06 | 62 | |
| 20260510131027 | 61 | 251 | 0.9 | 3.5 | 0.00 | 0.06 | 0.06 | 64 | |
| 20260510130027 | 59 | 248 | 0.9 | 5.2 | 0.00 | 0.06 | 0.06 | 68 | |
| 20260510125026 | 58 | 253 | 0.9 | 3.5 | 0.00 | 0.06 | 0.06 | 68 | |
| 20260510124027 | 57 | 243 | 1.7 | 5.2 | 0.00 | 0.06 | 0.06 | 70 | |
| 20260510123028 | 58 | 245 | 0.9 | 3.5 | 0.00 | 0.06 | 0.06 | 71 | |
| 20260510122027 | 57 | 230 | 1.7 | 6.1 | 0.00 | 0.06 | 0.06 | 72 | |
| 20260510121027 | 56 | 250 | 0.9 | 4.3 | 0.00 | 0.06 | 0.06 | 74 | |
| 20260510120046 | 56 | 245 | 0.9 | 2.6 | 0.00 | 0.06 | 0.06 | 78 | |
| 20260510115026 | 55 | 261 | 1.7 | 6.1 | 0.00 | 0.06 | 0.06 | 79 | |
| 20260510114027 | 56 | 240 | 0.9 | 2.6 | 0.00 | 0.06 | 0.06 | 83 | |
| 20260510113027 | 55 | 249 | 0.9 | 3.5 | 0.00 | 0.06 | 0.06 | 85 | |
| 20260510112027 | 54 | 252 | 0.9 | 1.7 | 0.00 | 0.06 | 0.06 | 89 | |
| 20260510111026 | 54 | 240 | 0.9 | 4.3 | 0.00 | 0.06 | 0.06 | 89 | |
| 20260510110028 | 54 | 238 | 0.9 | 4.3 | 0.00 | 0.06 | 0.06 | 90 | |
| 20260510105026 | 54 | 243 | 0.9 | 2.6 | 0.00 | 0.06 | 0.06 | 91 | |
| 20260510104027 | 54 | 240 | 0.9 | 5.2 | 0.00 | 0.06 | 0.06 | 90 | |
| 20260510103027 | 54 | 231 | 0.9 | 4.3 | 0.00 | 0.06 | 0.06 | 90 | |
| 20260510102046 | 53 | 243 | 0.9 | 2.6 | 0.00 | 0.06 | 0.06 | 92 | |
| 20260510101027 | 53 | 228 | 0.9 | 3.5 | 0.00 | 0.06 | 0.06 | 92 | |
| 20260510100047 | 53 | 252 | 0.9 | 5.2 | 0.00 | 0.06 | 0.06 | 92 | |
| 20260510095027 | 53 | 257 | 0.9 | 4.3 | 0.00 | 0.06 | 0.06 | 92 | |
| 20260510094026 | 53 | 250 | 0.9 | 4.3 | 0.00 | 0.06 | 0.06 | 92 | |
| 20260510093027 | 53 | 248 | 0.9 | 2.6 | 0.00 | 0.06 | 0.06 | 93 | |
| 20260510092027 | 53 | 247 | 0.9 | 1.7 | 0.00 | 0.06 | 0.06 | 93 | |
| 20260510091026 | 53 | 241 | 0.9 | 3.5 | 0.00 | 0.06 | 0.06 | 93 | |
| 20260510090047 | 53 | 226 | 0.9 | 5.2 | 0.00 | 0.06 | 0.06 | 94 | |
| 20260510085026 | 53 | 228 | 0.9 | 2.6 | 0.00 | 0.06 | 0.06 | 95 | |
| 20260510084027 | 53 | 213 | 0.9 | 3.5 | 0.00 | 0.06 | 0.06 | 95 | |
| 20260510083027 | 53 | 199 | 1.7 | 4.3 | 0.00 | 0.06 | 0.06 | 95 | |
| 20260510082026 | 53 | 201 | 0.9 | 3.5 | 0.00 | 0.06 | 0.06 | 95 | |
| 20260510081028 | 53 | 195 | 1.7 | 4.3 | 0.00 | 0.06 | 0.06 | 95 | |
| 20260510080026 | 52 | 178 | 1.7 | 6.1 | 0.00 | 0.06 | 0.06 | 96 | |
| 20260510075026 | 52 | 190 | 1.7 | 6.1 | 0.00 | 0.06 | 0.06 | 96 | |
| 20260510074026 | 52 | 175 | 2.6 | 6.1 | 0.00 | 0.06 | 0.06 | 96 | |
| 20260510073026 | 52 | 202 | 2.6 | 7.8 | 0.00 | 0.06 | 0.06 | 96 | |
| 20260510072027 | 52 | 162 | 2.6 | 7.0 | 0.02 | 0.06 | 0.06 | 96 | |
| 20260510071026 | 52 | 203 | 2.6 | 5.2 | 0.05 | 0.06 | 0.06 | 96 | |
| 20260510070029 | 52 | 183 | 1.7 | 6.1 | 0.06 | 0.06 | 0.06 | 96 | |
| 20260510065026 | 52 | 180 | 3.5 | 7.0 | 0.06 | 0.06 | 0.06 | 96 | |
| 20260510064026 | 52 | 218 | 2.6 | 7.8 | 0.06 | 0.06 | 0.06 | 95 | |
| 20260510063106 | 52 | 191 | 2.6 | 6.1 | 0.06 | 0.06 | 0.06 | 94 | |
| 20260510062106 | 52 | 145 | 3.5 | 8.7 | 0.04 | 0.04 | 0.04 | 91 | |
| 20260510061047 | 53 | 183 | 2.6 | 7.0 | 0.01 | 0.01 | 0.01 | 87 | |
| 20260510060026 | 54 | 182 | 2.6 | 5.2 | 0.00 | 0.00 | 0.00 | 80 | |
| 20260510055026 | 54 | 163 | 1.7 | 5.2 | 0.00 | 0.00 | 0.00 | 79 | |
| 20260510054026 | 53 | 213 | 1.7 | 4.3 | 0.00 | 0.00 | 0.00 | 79 | |
| 20260510053026 | 52 | 240 | 0.9 | 2.6 | 0.00 | 0.00 | 0.00 | 79 | |
| 20260510052026 | 52 | 183 | 1.7 | 4.3 | 0.00 | 0.00 | 0.00 | 79 | |
| 20260510051046 | 52 | 237 | 0.9 | 2.6 | 0.00 | 0.00 | 0.00 | 79 | |
| 20260510050027 | 52 | 225 | 0.9 | 4.3 | 0.00 | 0.00 | 0.00 | 78 | |
| 20260510045026 | 52 | 243 | 0.9 | 2.6 | 0.00 | 0.00 | 0.00 | 78 | |
| 20260510044026 | 52 | 242 | 0.9 | 4.3 | 0.00 | 0.00 | 0.00 | 78 | |
| 20260510043026 | 52 | 145 | 1.7 | 5.2 | 0.00 | 0.00 | 0.00 | 77 | |
| 20260510042026 | 52 | 180 | 1.7 | 4.3 | 0.00 | 0.00 | 0.00 | 77 | |
| 20260510041026 | 52 | 189 | 1.7 | 5.2 | 0.00 | 0.00 | 0.00 | 77 | |
| 20260510040046 | 52 | 139 | 1.7 | 5.2 | 0.00 | 0.00 | 0.00 | 76 | |
| 20260510035026 | 52 | 179 | 1.7 | 3.5 | 0.00 | 0.00 | 0.00 | 76 | |
| 20260510034026 | 52 | 144 | 2.6 | 6.1 | 0.00 | 0.00 | 0.00 | 75 | |
| 20260510033026 | 52 | 139 | 1.7 | 7.0 | 0.00 | 0.00 | 0.00 | 75 | |
| 20260510032106 | 53 | 123 | 2.6 | 7.0 | 0.00 | 0.00 | 0.00 | 74 | |
| 20260510031046 | 53 | 148 | 1.7 | 4.3 | 0.00 | 0.00 | 0.00 | 74 | |
| 20260510030026 | 53 | 255 | 1.7 | 6.1 | 0.00 | 0.00 | 0.00 | 74 | |
| 20260510025526 | 53 | 197 | 1.7 | 4.3 | 0.00 | 0.00 | 0.00 | 74 | |
| 20260510024526 | 53 | 180 | 1.7 | 5.2 | 0.00 | 0.00 | 0.00 | 73 | |
| 20260510023526 | 53 | 132 | 2.6 | 4.3 | 0.00 | 0.00 | 0.00 | 73 | |
| 20260510022527 | 53 | 165 | 0.9 | 4.3 | 0.00 | 0.00 | 0.00 | 72 | |
| 20260510021526 | 54 | 191 | 0.9 | 2.6 | 0.00 | 0.00 | 0.00 | 72 | |
| 20260510020526 | 54 | 184 | 1.7 | 5.2 | 0.00 | 0.00 | 0.00 | 71 | |
| 20260510015526 | 54 | 157 | 1.7 | 4.3 | 0.00 | 0.00 | 0.00 | 70 | |
| 20260510014526 | 55 | 209 | 1.7 | 4.3 | 0.00 | 0.00 | 0.00 | 70 | |
| 20260510013526 | 55 | 136 | 1.7 | 4.3 | 0.00 | 0.00 | 0.00 | 69 | |
| 20260510012526 | 55 | 167 | 2.6 | 7.0 | 0.00 | 0.00 | 0.00 | 68 | |
| 20260510011527 | 55 | 167 | 0.9 | 6.1 | 0.00 | 0.00 | 0.00 | 68 | |
| 20260510010526 | 56 | 229 | 0.9 | 2.6 | 0.00 | 0.00 | 0.00 | 67 | |
| 20260510005526 | 56 | 192 | 2.6 | 7.0 | 0.00 | 0.00 | 0.00 | 66 | |
| 20260510004526 | 56 | 229 | 0.9 | 4.3 | 0.00 | 0.00 | 0.00 | 65 | |
| 20260510003526 | 57 | 195 | 1.7 | 7.8 | 0.00 | 0.00 | 0.00 | 64 | |
| 20260510002527 | 57 | 171 | 3.5 | 6.1 | 0.00 | 0.00 | 0.00 | 63 | |
| 20260510001526 | 58 | 167 | 3.5 | 7.8 | 0.00 | 0.00 | 0.00 | 62 | |
| 20260510000526 | 58 | 217 | 2.6 | 9.6 | 0.00 | 0.00 | 0.00 | 61 | |
| 20260509235526 | 58 | 188 | 0.9 | 4.3 | 0.00 | 0.00 | 0.00 | 60 | |
| 20260509234526 | 59 | 178 | 3.5 | 7.8 | 0.00 | 0.00 | 0.00 | 57 | |
| 20260509233546 | 60 | 158 | 4.3 | 7.8 | 0.00 | 0.00 | 0.00 | 55 | |
| 20260509232526 | 60 | 162 | 2.6 | 7.8 | 0.00 | 0.00 | 0.00 | 53 | |
| 20260509231527 | 61 | 150 | 2.6 | 6.1 | 0.00 | 0.00 | 0.00 | 51 |